Vorticity
nan nan nan nan nan nan nan nan nan nan nan nan nan nan nan nan nan nan nan nan nan nan nan nan nan nan nan nan nan nan nan nan nan nan nan nan nan nan nan nan nan nan nan
nan 4 9 10 11 8 8 11 8 6 11 13 8 7 9 9 7 10 9 9 11 11 10 10 9 18 18 10 11 12 12 14 11 9 6 8 8 8 8 8 7 8 nan
nan 8 10 11 10 9 10 11 9 9 10 9 9 9 9 9 8 8 10 11 11 11 11 10 16 18 12 12 12 12 10 11 9 6 8 9 7 8 6 5 8 8 nan
nan 11 10 9 10 13 12 11 9 9 8 8 9 9 11 11 12 12 12 13 12 12 12 17 20 15 12 12 10 11 11 10 8 7 9 9 7 7 8 7 7 7 nan
nan 10 10 11 11 10 10 10 8 7 8 10 10 12 13 13 9 6 12 11 13 20 23 25 21 20 15 7 11 14 9 9 10 9 8 9 9 9 8 7 8 6 nan
nan 11 11 11 9 8 9 8 10 10 11 11 11 10 12 12 7 7 20 22 21 21 20 19 21 16 15 15 19 16 10 10 10 8 10 9 9 10 9 8 7 6 nan
nan 11 11 11 11 11 9 10 10 11 11 11 12 13 14 12 14 15 29 28 21 15 11 10 12 14 12 11 11 9 11 9 10 11 11 11 11 8 8 7 9 10 nan
nan 11 11 12 11 10 11 10 11 11 11 13 17 24 29 26 23 27 15 12 15 16 12 12 12 12 14 15 5 6 9 9 14 18 18 19 17 16 13 13 10 8 nan
nan 10 11 10 12 12 11 12 12 10 12 17 22 28 36 35 32 22 7 6 12 10 12 13 17 18 19 10 7 9 9 9 12 14 11 14 14 12 8 7 9 10 nan
nan 12 12 12 11 11 10 11 12 11 16 17 16 21 20 20 21 11 13 8 7 7 8 13 12 17 11 6 10 6 6 8 6 -0 0 3 11 8 4 9 11 8 nan
nan 12 12 11 12 11 12 13 13 18 19 15 12 12 8 12 13 13 13 19 15 9 9 8 7 17 10 9 10 15 16 11 5 6 9 8 8 6 6 10 14 12 nan
nan 12 12 12 12 11 11 11 18 20 16 9 10 11 9 8 8 15 14 20 19 12 11 16 21 12 10 7 13 18 8 4 5 8 9 10 9 7 10 11 10 11 nan
nan 12 12 12 13 12 13 17 16 11 12 10 9 9 10 9 4 4 4 6 11 12 17 15 11 5 4 6 9 1 -2 5 11 10 9 8 8 9 9 7 9 8 nan
nan 13 12 11 11 19 20 16 11 11 12 11 9 9 10 10 9 4 2 1 1 9 12 6 2 0 -1 -1 -2 2 6 10 10 8 8 8 9 10 8 9 9 9 nan
nan 12 12 12 16 17 15 14 18 19 20 17 15 14 11 15 20 20 17 13 9 13 4 6 4 3 4 4 6 8 10 12 10 9 9 10 10 10 9 11 10 12 nan
nan 12 13 16 15 13 11 9 13 20 22 21 21 19 20 21 19 14 16 18 16 6 4 10 10 10 10 10 9 9 10 10 10 11 11 11 10 10 11 11 12 12 nan
nan 16 15 15 14 13 11 10 -0 3 10 11 14 15 20 13 8 8 8 5 2 2 8 10 10 10 10 10 10 10 9 8 10 10 10 10 10 11 11 10 10 11 nan
nan 15 17 12 12 13 11 10 10 9 3 2 4 8 7 10 10 10 6 -1 0 6 12 11 10 10 10 10 10 10 9 10 11 11 10 11 12 11 9 9 11 13 nan
nan 14 13 11 11 12 12 11 11 10 9 8 3 3 4 6 3 2 1 5 10 8 10 10 10 10 10 10 10 10 11 11 11 10 10 10 11 10 10 12 13 10 nan
nan 14 13 11 11 10 12 11 9 9 8 9 9 8 10 3 3 4 6 11 10 10 10 10 10 11 11 10 10 11 11 10 10 9 10 10 11 10 11 11 10 8 nan
nan 10 8 9 12 12 12 10 9 10 10 11 11 15 17 8 10 11 11 11 10 10 10 10 10 10 10 10 10 11 10 9 10 11 11 10 11 11 11 11 11 10 nan
nan 13 9 11 12 14 12 11 11 11 11 11 11 11 5 9 11 11 11 11 10 11 11 11 10 11 12 11 10 10 10 10 9 10 11 11 11 11 11 11 11 11 nan
nan 12 12 12 13 11 9 10 12 12 11 10 11 9 6 11 11 12 11 11 11 10 11 12 11 11 11 11 12 13 11 10 10 11 11 10 11 11 11 11 11 12 nan
nan 12 12 11 10 9 11 11 11 11 10 10 11 11 12 11 11 11 10 11 10 10 12 12 12 12 12 12 12 13 14 15 13 14 11 11 12 11 11 11 11 11 nan
nan 12 11 11 12 11 10 10 11 10 10 11 11 11 11 11 10 10 11 11 11 10 11 12 13 13 13 12 13 15 15 13 13 14 10 12 12 10 11 11 12 11 nan
nan nan nan nan nan nan nan nan nan nan nan nan nan nan nan nan nan nan nan nan nan nan nan nan nan nan nan nan nan nan nan nan nan nan nan nan nan nan nan nan nan nan nan
CAPE
0 0 0 0 0 0 0 0 0 0 0 0 0 0 0 0 5 0 0 2 7 16 78 67 96 248 292 0 2 0 0 0 1 1 2 1 1 1 0 0 0 0 2
0 0 0 0 0 0 0 0 0 0 0 0 0 0 0 12 0 6 4 5 9 18 31 39 36 173 126 2 2 1 0 3 0 0 1 2 1 0 0 0 0 0 0
0 0 0 0 0 0 0 0 0 0 0 0 0 2 5 6 11 1 3 5 9 13 31 110 120 218 7 1 0 1 4 1 0 0 3 2 1 0 0 0 0 0 0
0 0 0 0 0 0 0 0 0 0 0 0 0 0 0 3 0 6 7 6 3 9 10 144 323 38 0 1 1 4 1 1 1 0 1 3 3 0 0 0 0 0 0
0 0 0 0 0 0 0 0 0 0 0 0 0 0 1 22 15 19 10 5 4 7 291 345 88 1 7 4 1 2 0 1 0 1 2 3 3 0 0 0 0 0 0
0 0 0 0 0 0 0 0 0 0 0 0 0 0 0 16 20 9 10 7 114 83 1 1 9 20 23 18 13 2 0 0 0 0 1 2 4 0 0 0 0 0 0
0 0 1 4 3 3 2 0 0 0 0 0 0 1 3 3 9 4 1 3 1 2 1 4 10 19 11 11 32 36 27 15 1 0 0 0 0 0 0 0 0 0 0
4 8 17 18 9 6 6 4 0 2 2 2 2 0 1 3 3 2 3 1 0 2 4 3 3 3 5 2 0 0 0 0 0 0 0 0 0 0 0 0 0 0 0
17 13 13 13 8 9 12 5 5 3 2 2 7 0 2 2 9 8 4 2 1 1 2 1 0 0 2 0 0 0 0 0 0 0 0 0 0 0 0 0 0 0 0
17 16 14 9 7 7 4 7 9 1 2 14 6 0 11 9 26 17 3 1 0 2 3 2 8 0 4 0 0 0 0 0 0 0 0 0 0 0 0 0 0 0 0
10 7 8 4 3 2 5 3 2 1 5 11 10 14 10 15 19 22 8 0 0 1 1 0 0 0 0 0 0 0 0 0 0 0 0 0 0 0 0 0 0 0 0
5 5 4 1 2 3 1 0 0 17 10 6 6 7 6 6 13 15 7 1 0 0 0 0 0 0 0 0 0 0 0 0 0 0 0 0 0 0 0 0 0 0 0
2 2 1 0 0 0 2 1 10 6 6 6 5 4 4 6 9 14 5 0 0 0 0 5 4 0 1 0 0 0 0 0 0 0 0 0 0 0 0 0 0 0 0
1 1 0 0 0 0 1 5 6 7 7 4 2 2 1 0 0 0 0 1 10 0 0 0 1 0 0 0 0 0 0 0 0 0 0 0 0 0 0 0 0 0 0
0 0 0 0 0 3 13 7 6 13 5 3 1 0 0 0 0 0 0 0 0 0 0 0 0 0 0 0 0 0 0 0 0 0 0 0 0 0 0 0 0 0 0
0 0 0 0 5 4 4 6 23 14 9 1 2 0 0 1 1 0 0 0 0 0 0 0 0 0 0 0 0 0 0 0 0 0 0 0 0 0 0 0 0 0 0
0 0 0 4 7 6 2 3 8 14 19 13 9 9 5 3 3 2 0 0 0 0 0 0 0 0 0 0 0 0 0 0 0 0 0 0 0 0 0 0 0 0 0
0 5 2 4 5 3 3 2 2 1 1 3 9 4 14 7 1 0 0 0 0 0 0 0 0 0 0 0 0 0 0 0 0 0 0 0 0 0 0 0 0 0 0
1 2 2 2 3 2 2 1 0 0 0 0 0 0 2 0 0 0 0 0 0 0 0 0 0 0 0 0 0 0 0 0 0 0 0 0 0 0 0 0 0 0 0
4 3 1 1 2 2 1 0 0 0 0 0 0 0 0 0 0 0 0 0 0 0 0 0 0 0 0 0 0 0 0 0 0 0 0 0 0 0 0 0 0 0 0
3 3 2 1 2 2 0 0 0 0 0 0 0 0 0 0 0 0 0 0 0 0 0 0 0 0 0 0 0 0 0 0 0 0 0 0 0 0 0 0 0 0 0
1 2 2 3 2 0 0 0 0 0 0 0 0 0 0 0 0 0 0 0 0 0 0 0 0 0 0 0 0 0 0 0 0 0 0 0 0 0 0 0 0 0 0
1 2 3 3 0 0 0 0 0 0 0 0 0 0 0 0 0 0 0 0 0 0 0 0 0 0 0 0 0 0 0 0 0 0 0 0 0 0 0 0 0 0 0
2 2 1 0 0 0 0 0 0 0 0 0 0 0 0 0 0 0 0 0 0 0 0 0 0 0 0 0 0 0 0 0 0 0 0 0 0 0 0 0 0 0 0
1 1 0 0 0 0 0 0 0 0 0 0 0 0 0 0 0 0 0 0 0 0 0 0 0 0 0 0 0 0 0 0 0 0 0 0 0 0 0 0 0 0 0
0 0 0 0 0 0 0 0 0 0 0 0 0 0 0 0 0 0 0 0 0 0 0 0 0 0 0 0 0 0 0 0 0 0 0 0 0 0 0 0 0 0 0